GFSNGP_850_rhum_201.txt.gz
RH
48 47 49 52 49 59 63 47 57 34 62 39 42 61 40 30 30 32 32 33 34 36 35 40 42 40 37 38 47 49 49 50 50 53 54 55 55 49 36 20 16 16 14 13
57 48 51 52 50 50 50 45 45 42 46 31 30 30 32 28 28 32 35 34 36 39 40 42 39 37 36 43 51 49 49 51 53 55 56 56 57 55 46 29 18 16 20 29
77 50 52 66 55 46 51 52 48 56 41 34 36 36 32 27 28 30 30 30 41 39 39 39 39 38 46 50 49 49 47 48 53 58 58 58 59 60 53 36 25 26 32 34
84 53 72 36 36 44 47 44 41 39 38 36 35 31 30 31 32 33 34 35 38 40 42 40 42 51 50 48 46 46 43 45 52 60 60 60 60 59 49 35 32 31 39 52
85 89 60 42 34 39 36 36 46 42 44 41 36 34 35 38 37 36 36 39 41 41 42 42 48 53 52 47 45 44 47 56 61 64 64 62 62 60 48 38 36 48 57 59
81 89 85 40 36 38 37 52 45 45 48 48 40 53 55 39 39 38 36 36 37 39 44 54 55 52 48 47 47 48 58 66 67 67 66 63 64 56 47 41 56 63 58 57
78 89 80 51 37 39 48 48 41 44 45 44 54 46 42 42 43 47 45 43 46 55 58 58 55 53 53 56 57 64 70 71 72 69 66 66 56 48 46 57 64 49 52 46
87 94 85 40 39 48 67 68 67 74 76 72 64 57 53 50 48 49 54 55 58 60 62 62 64 66 67 66 68 71 73 74 73 69 59 52 53 61 61 54 48 45 41 34
67 71 44 51 70 83 83 88 91 86 90 89 83 79 79 76 71 69 72 74 73 75 76 76 88 82 70 67 66 64 62 60 61 62 62 55 43 35 30 30 37 38 36 31
58 57 62 63 76 99 97 94 95 89 91 86 89 95 99 99 98 99 99 98 97 90 92 89 97 97 97 84 69 51 44 36 30 29 28 27 27 28 30 31 33 31 31 31
70 71 84 98 92 88 77 80 82 91 87 82 81 84 83 86 86 88 90 92 94 95 97 96 96 92 79 58 48 48 48 43 39 39 39 37 32 31 32 30 35 37 39 41
94 99 98 98 86 69 67 62 67 56 48 48 50 55 57 58 60 61 57 53 51 53 64 75 84 79 74 71 49 42 35 28 28 24 24 25 23 21 19 18 21 29 37 46
78 79 89 74 74 65 54 55 52 50 51 48 44 45 42 45 42 49 51 52 49 53 52 57 49 40 28 26 28 27 30 34 32 32 30 34 36 33 32 27 30 30 32 35
83 87 74 54 48 44 46 48 52 51 53 55 55 58 54 47 42 42 45 46 44 39 37 37 34 31 24 27 36 34 32 31 33 32 36 32 31 33 46 51 49 38 29 45
51 56 50 52 53 55 57 57 56 53 46 44 52 59 63 67 63 53 42 39 35 34 38 43 44 37 30 39 43 43 44 44 46 51 49 45 43 44 48 59 64 61 52 34
59 53 57 59 57 56 56 52 56 55 59 61 62 46 50 69 75 53 38 34 34 26 27 38 41 31 42 40 39 46 49 54 60 59 57 54 56 69 72 79 82 76 75 72
67 63 61 64 65 63 59 56 62 64 69 66 58 54 66 54 62 58 33 30 34 36 35 42 41 39 43 45 53 60 64 64 64 70 64 67 76 83 90 94 93 91 93 99
55 56 58 62 63 66 64 60 70 74 75 60 64 71 59 53 56 45 39 43 39 37 38 39 42 45 47 56 64 65 71 69 76 85 88 94 97 97 93 89 88 86 84 86
46 51 51 51 48 48 49 48 48 52 56 55 56 50 50 53 53 55 57 54 56 57 38 42 47 53 58 61 74 80 84 85 91 90 90 86 85 84 83 83 85 90 92 90
36 36 39 42 43 45 46 43 46 51 51 59 62 61 58 54 61 66 61 62 58 49 47 50 56 60 68 77 87 91 86 86 85 83 89 96 95 93 93 96 98 97 96 96
46 48 50 51 54 56 62 69 73 72 69 73 76 72 68 66 65 61 62 63 46 50 58 65 75 82 90 94 92 88 88 92 92 94 96 93 93 95 97 95 89 89 97 100
56 59 61 64 69 72 75 78 78 80 81 85 91 93 91 86 80 75 74 80 70 70 80 88 86 88 93 95 96 95 92 95 96 97 96 96 97 97 97 96 97 97 96 96
65 67 72 78 82 84 82 80 79 81 86 87 88 91 96 96 96 97 96 84 93 94 95 93 90 91 100 97 94 96 95 97 97 97 97 97 97 95 94 95 97 98 98 96
80 80 84 85 86 85 85 83 85 91 90 85 86 90 92 92 88 85 91 92 91 91 92 96 95 98 99 96 94 94 97 96 94 95 97 95 96 97 97 97 96 95 95 94
91 94 91 86 93 98 99 96 94 85 85 92 93 83 83 85 99 95 95 93 92 96 93 89 97 100 96 97 97 94 95 96 95 94 97 98 96 97 97 97 96 97 96 97
91 92 95 97 96 96 94 94 97 94 99 95 88 90 89 92 90 92 94 96 95 92 98 99 98 98 94 88 93 95 96 94 97 96 95 96 97 98 98 99 100 99 97 96
94 99 93 96 88 91 95 98 97 97 97 98 96 91 96 95 96 96 96 96 95 97 94 90 90 95 95 94 98 97 97 98 97 96 97 97 96 96 98 100 100 98 98 97

GFSNGP_850_rhum_204.txt.gz
RH
50 48 50 48 48 59 66 52 55 38 61 41 40 58 38 31 28 28 27 26 28 30 32 32 35 38 39 42 43 43 43 48 47 49 52 53 54 55 56 55 48 35 22 16
60 50 57 57 55 54 50 46 52 43 47 32 32 32 33 33 33 33 34 32 32 32 38 40 38 38 43 44 40 39 44 47 47 51 54 55 57 57 57 57 53 42 29 19
75 54 53 66 57 46 56 57 48 55 42 40 44 42 39 40 40 38 35 34 35 35 35 42 41 43 43 40 39 44 51 47 48 51 52 54 60 60 58 59 56 49 34 28
85 58 72 38 38 45 48 46 47 45 41 42 43 37 37 39 42 41 42 39 35 37 36 38 40 41 40 40 50 56 52 47 45 48 51 56 62 62 60 60 57 46 38 32
83 88 60 45 41 48 46 53 46 50 49 46 45 43 40 46 45 46 44 46 44 39 38 40 42 44 49 54 56 55 49 49 50 55 61 64 65 64 62 60 54 44 36 54
90 92 87 45 38 39 34 69 54 55 64 63 55 75 62 62 57 52 50 49 55 48 47 47 54 58 59 59 56 57 61 61 63 66 68 69 69 65 62 57 48 39 55 65
74 89 79 54 44 41 59 65 76 81 86 84 77 73 76 68 59 66 66 61 66 66 67 67 64 64 63 64 65 72 81 87 83 78 76 70 63 63 60 49 44 55 64 53
80 91 90 57 58 53 82 80 88 91 93 94 91 89 88 92 89 78 73 70 73 75 76 78 77 75 75 76 74 76 84 80 83 74 68 76 76 67 62 61 54 46 39 29
68 72 77 87 89 98 99 99 99 98 98 98 97 98 97 98 88 83 81 80 84 90 93 92 95 98 93 93 96 96 93 84 75 80 80 75 61 47 36 35 32 28 27 26
83 65 92 99 99 98 96 91 94 80 75 70 63 57 56 57 61 65 64 63 61 59 59 65 74 86 94 95 94 90 79 73 66 52 50 45 38 35 33 30 29 27 26 30
73 72 88 96 91 84 84 77 69 57 50 52 50 45 46 47 46 46 48 52 53 54 55 56 62 62 63 62 58 54 60 59 62 61 57 51 48 55 40 21 21 26 29 35
85 99 94 94 93 66 50 45 46 49 50 52 52 52 54 53 50 47 42 38 38 35 33 30 36 45 48 43 40 43 40 31 31 36 37 38 34 26 23 24 26 31 36 43
87 80 88 80 59 46 47 52 53 51 52 56 53 58 61 60 57 60 60 54 36 30 29 28 24 27 27 28 34 41 45 45 43 43 42 37 29 28 28 29 26 32 33 35
72 82 73 56 50 53 54 53 59 60 60 62 62 59 62 63 48 50 56 63 58 38 28 25 24 20 18 26 30 34 40 44 49 49 53 56 56 56 58 57 56 45 33 39
63 64 51 53 52 51 54 59 59 53 47 41 42 46 38 38 43 52 55 50 65 54 35 32 29 27 30 35 41 47 51 46 45 49 56 61 64 66 66 64 64 63 61 55
66 57 52 53 56 56 53 46 51 44 42 41 44 34 39 55 57 54 41 38 48 44 43 45 43 35 42 46 48 50 49 53 63 67 69 69 75 79 78 83 83 79 77 72
59 53 54 59 59 55 52 46 47 48 47 48 44 48 63 53 49 45 41 41 48 51 51 55 42 44 48 48 52 56 62 69 71 78 84 82 90 91 93 96 93 87 82 79
51 58 64 60 56 54 50 47 46 46 48 52 56 56 56 59 63 60 56 52 54 51 50 43 46 50 50 51 58 63 72 79 85 88 86 89 85 87 86 87 87 89 86 84
39 42 40 41 45 51 54 57 61 64 66 68 72 74 77 78 78 77 70 61 67 62 44 52 54 58 57 56 68 74 82 89 92 90 88 92 95 92 96 95 95 94 91 90
45 45 47 52 55 60 63 68 72 75 74 79 81 81 83 84 90 94 91 90 84 72 71 69 70 66 68 74 79 85 89 91 92 93 95 98 100 97 97 97 100 100 96 97
55 57 61 64 66 69 75 76 78 79 81 86 88 87 87 88 86 91 97 96 77 81 89 95 95 94 87 85 86 87 87 93 92 89 90 94 95 94 94 93 96 99 92 95
66 69 72 78 79 76 75 79 84 85 84 86 91 89 90 90 92 89 86 95 84 88 92 91 88 86 87 94 96 96 94 95 95 97 96 97 97 97 97 97 98 96 96 96
81 84 84 83 88 87 84 86 84 88 92 85 84 87 97 97 87 92 90 79 89 87 96 94 91 98 99 97 94 94 97 95 94 95 96 95 95 97 97 97 99 99 99 97
87 86 84 84 86 94 93 89 91 89 84 84 86 85 86 90 89 84 90 89 89 90 97 98 97 100 99 97 96 93 98 96 95 95 95 92 97 98 94 95 97 96 95 93
84 83 86 95 96 97 92 92 90 88 93 94 93 88 95 94 94 92 96 95 96 95 94 93 95 94 88 85 85 89 91 96 97 96 96 97 93 93 94 94 96 95 96 98
85 89 98 94 98 90 97 99 97 87 84 87 87 85 86 93 95 95 95 98 98 97 96 94 95 97 98 97 97 97 98 97 97 97 99 94 94 97 97 97 99 100 99 95
85 95 93 94 87 97 96 99 100 93 99 94 95 94 94 94 94 96 96 96 97 95 96 95 96 97 98 96 94 94 99 97 96 96 96 97 97 97 97 97 98 97 97 95

GFSNGP_850_rhum_210.txt.gz
RH
42 44 56 49 47 65 61 48 52 46 62 40 43 56 50 51 50 48 46 43 43 43 41 38 34 36 40 43 42 42 41 43 45 49 49 50 50 52 55 56 56 58 58 57
54 49 53 59 57 53 58 50 48 43 49 44 44 50 56 59 58 60 58 54 49 44 44 46 44 41 40 42 44 46 47 50 54 56 54 57 58 60 62 62 59 61 60 61
65 61 59 68 60 51 54 57 51 57 47 48 50 58 67 72 70 70 64 61 55 52 54 56 54 50 47 46 47 48 51 55 58 60 62 64 67 68 64 63 68 68 67 66
82 56 75 37 39 46 52 54 55 54 57 55 55 60 82 88 77 72 71 69 70 67 66 68 68 63 63 60 58 60 65 68 70 70 68 65 63 63 63 67 73 74 70 68
83 89 63 45 47 58 56 63 62 65 66 72 62 58 76 90 78 84 84 80 84 89 86 82 78 75 75 76 75 73 70 69 68 69 72 75 79 87 87 88 88 85 87 95
89 89 84 51 46 46 48 71 73 77 83 80 71 83 86 100 92 72 66 66 68 70 74 74 73 75 77 79 82 83 84 88 88 86 86 84 80 84 87 90 95 99 99 94
73 82 74 54 56 49 65 70 87 86 90 90 89 95 98 86 68 63 57 50 44 38 35 33 32 32 33 35 42 47 53 58 63 68 74 79 74 67 70 76 87 93 93 91
82 91 87 92 65 57 85 93 95 97 98 96 97 92 72 53 41 36 34 32 28 24 22 24 26 22 19 19 21 25 27 31 36 38 40 50 67 74 71 68 62 63 62 62
70 73 97 98 98 98 99 98 100 97 97 95 74 58 51 46 44 40 36 33 32 30 25 22 22 22 20 18 19 20 22 22 23 26 35 42 46 47 57 63 69 71 70 69
85 94 97 99 100 100 100 99 98 87 68 51 48 50 50 47 48 49 47 45 39 31 27 25 26 26 25 21 18 18 18 18 19 22 22 23 29 31 33 33 38 47 49 48
100 99 99 99 99 96 93 89 65 54 49 53 54 55 58 56 53 50 44 38 35 32 32 35 37 31 31 29 25 24 23 20 18 19 20 23 26 31 35 33 46 54 53 57
85 99 97 100 96 91 67 50 51 52 53 59 62 62 58 49 44 40 33 33 38 36 35 35 37 30 27 28 34 35 32 28 26 26 26 32 37 35 32 38 38 47 54 64
98 98 97 97 89 67 56 59 62 64 65 59 49 44 37 33 29 27 31 32 33 33 36 40 37 34 33 33 37 41 47 41 37 40 42 44 46 50 50 38 42 45 53 56
98 96 96 89 74 64 68 66 61 52 46 41 36 31 30 30 28 32 33 38 39 40 40 44 45 43 46 43 44 45 48 45 52 48 47 47 49 53 62 65 67 58 54 65
82 69 66 66 66 65 57 46 37 32 33 32 34 38 40 42 42 41 44 51 54 55 55 56 60 60 61 57 56 55 55 53 55 53 51 51 54 60 69 74 78 80 71 66
56 56 45 43 41 37 35 37 42 42 43 44 42 40 46 54 54 51 51 58 64 62 58 65 67 61 74 80 75 70 65 67 70 67 63 64 66 75 82 86 90 86 85 81
43 43 41 40 44 44 49 50 53 54 55 56 54 58 64 66 66 64 61 67 77 74 73 73 69 72 79 89 91 88 86 76 71 78 81 80 82 85 89 93 90 88 86 83
50 53 55 58 58 57 56 57 58 61 66 68 73 76 75 73 76 75 77 85 86 79 78 72 73 77 82 86 94 96 96 94 91 93 88 85 88 91 89 89 90 89 85 86
50 55 58 60 63 66 68 68 73 76 75 75 76 75 76 81 85 87 87 89 90 91 79 78 73 79 83 82 90 96 94 94 91 88 92 95 95 84 81 87 94 97 96 97
58 61 61 63 65 70 74 73 74 75 75 80 87 91 92 92 93 93 94 97 92 86 83 83 85 87 88 88 88 85 84 88 93 95 96 86 94 96 96 97 94 98 96 98
79 81 80 71 70 72 73 78 83 84 85 91 94 96 99 97 94 96 97 95 80 85 94 96 89 92 93 88 86 94 95 96 92 94 94 96 97 96 94 96 95 98 97 99
84 80 77 76 76 77 76 79 82 87 86 91 95 95 94 88 87 97 94 94 89 94 97 96 97 93 96 98 97 98 97 95 87 84 85 83 86 92 90 92 97 97 98 94
80 82 81 80 82 83 81 80 84 88 91 93 91 82 81 86 98 100 99 88 96 96 96 95 95 98 100 98 92 87 87 88 88 90 92 96 97 97 97 98 97 89 91 93
85 84 84 83 85 84 84 83 86 85 86 83 80 81 90 93 86 84 91 94 100 100 100 98 100 100 100 94 92 92 93 93 94 99 98 98 97 99 98 95 95 96 98 96
83 84 82 86 91 91 88 88 88 89 94 86 84 84 89 91 99 92 99 96 94 100 98 99 100 98 93 91 93 93 93 92 90 97 97 96 96 95 95 96 97 97 95 95
89 89 94 95 97 92 92 92 94 100 92 91 88 89 90 91 96 97 95 96 97 96 98 96 96 98 98 97 95 96 96 95 95 95 97 96 96 96 96 96 96 96 95 95
85 97 94 96 91 94 98 100 98 92 95 100 97 91 98 97 95 96 96 94 95 96 96 97 97 97 97 97 96 96 96 96 96 96 96 96 96 96 96 96 96 96 96 97

GFSNGP_850_rhum_213.txt.gz
RH
37 32 51 46 46 63 58 40 51 38 59 39 53 69 56 57 57 56 57 55 54 53 53 54 52 49 46 45 45 46 47 47 48 49 54 60 62 59 59 59 58 60 63 64
46 44 55 53 52 59 52 43 48 40 44 40 41 56 65 69 69 73 72 67 61 56 54 56 61 62 61 57 54 54 50 52 56 58 58 61 61 62 66 67 68 69 68 68
64 57 59 66 53 45 54 60 51 54 42 49 63 72 82 86 83 87 86 84 76 75 73 71 70 72 68 68 68 64 65 68 70 73 74 74 74 74 73 70 68 70 73 75
74 58 71 38 42 46 50 52 55 50 56 57 62 93 99 99 98 98 93 92 80 81 81 78 77 75 77 78 77 76 75 74 73 73 74 75 76 78 80 84 86 94 96 98
79 84 60 42 52 57 54 56 62 62 75 72 92 90 100 99 87 73 66 68 68 60 56 52 49 46 44 47 52 55 59 60 61 61 61 62 62 63 65 67 63 65 75 76
88 87 80 48 49 48 48 62 76 77 85 80 74 80 92 98 70 58 53 48 41 33 27 24 22 20 19 19 18 19 19 20 20 22 23 24 30 43 54 61 65 65 63 65
72 85 75 54 63 53 64 65 90 86 90 85 94 95 96 75 54 42 33 27 22 21 20 19 18 17 16 16 15 14 14 14 14 15 18 22 27 30 34 40 47 56 63 66
78 88 84 94 69 59 84 96 92 93 92 94 93 94 78 45 38 34 32 32 32 28 26 28 30 27 22 20 20 18 17 15 14 13 13 15 18 19 27 34 37 38 42 47
68 73 96 100 98 99 92 99 100 99 98 98 86 63 44 39 37 39 44 42 40 34 27 24 27 33 29 23 24 25 24 22 20 18 16 16 17 17 19 22 27 28 31 32
80 97 97 100 100 100 100 99 98 95 80 62 48 49 51 54 56 52 45 37 33 29 26 23 22 23 26 29 28 28 30 29 25 24 21 20 21 22 25 26 31 33 34 37
100 100 99 98 99 98 99 95 86 69 56 54 58 62 62 56 47 38 33 28 26 26 25 23 24 23 24 27 30 31 31 30 29 30 28 27 28 30 34 32 42 44 44 51
97 99 97 98 98 90 79 65 61 57 62 66 64 56 45 37 32 29 26 26 27 29 31 31 32 33 38 42 44 41 39 38 38 40 37 39 40 37 38 41 41 49 52 58
98 99 98 97 86 73 63 63 62 65 63 52 42 36 33 31 28 28 35 38 40 44 47 48 47 47 52 52 57 60 63 59 55 53 52 52 54 55 50 38 45 44 51 55
97 92 96 88 80 73 70 62 52 42 37 35 35 38 42 40 36 42 46 52 54 56 56 56 54 51 53 58 66 73 76 75 72 64 64 63 64 62 62 63 57 50 54 63
78 70 72 76 71 57 45 40 39 40 41 39 43 47 46 47 48 50 56 60 61 63 62 62 66 61 64 69 71 76 83 85 84 81 73 71 70 69 70 71 73 71 70 69
59 50 48 46 48 47 49 48 49 48 48 47 48 51 58 62 60 58 59 63 66 69 68 73 72 69 75 72 72 76 79 85 93 97 95 88 85 88 86 82 84 83 84 83
41 44 44 45 53 54 56 57 58 58 55 55 56 61 65 66 64 61 61 66 79 76 77 78 76 84 79 76 81 88 90 88 86 99 97 97 96 94 93 93 91 88 84 80
57 59 63 65 62 60 56 56 58 58 60 62 66 68 69 72 75 77 81 85 82 79 74 77 83 84 83 83 88 90 89 87 85 85 85 87 90 94 94 98 100 100 98 96
62 63 63 64 67 68 67 66 66 68 67 69 73 75 81 86 88 88 89 93 92 89 75 83 84 86 88 88 92 94 91 88 88 94 95 92 89 84 93 95 96 96 92 92
64 65 68 69 68 70 70 70 74 75 74 78 83 84 90 94 94 93 90 91 90 90 96 95 96 95 95 88 83 91 87 96 97 96 97 98 97 96 97 97 96 95 95 96
82 80 79 82 82 79 79 79 81 78 79 86 91 94 98 89 79 80 82 100 87 95 100 97 93 94 92 92 93 98 96 94 95 92 88 80 88 88 89 94 96 95 97 100
79 83 84 85 84 80 78 80 81 82 83 84 87 85 82 79 83 84 81 88 87 95 100 96 94 92 98 100 98 96 88 87 93 96 95 97 97 98 97 97 100 100 94 88
71 77 77 80 84 83 80 81 78 80 80 85 89 85 86 90 92 94 88 80 92 96 99 96 98 100 98 98 94 92 92 94 94 93 96 97 96 96 97 98 97 94 93 93
76 78 81 82 84 86 84 78 82 81 84 86 84 84 91 92 84 85 94 94 95 100 100 97 100 95 98 94 96 95 95 96 95 94 93 98 97 96 97 96 96 96 97 97
83 80 78 85 91 93 90 86 84 84 89 91 86 85 86 92 100 91 95 94 93 95 96 98 98 97 95 97 99 98 97 96 97 97 97 96 96 96 96 96 97 96 95 97
84 86 94 98 97 95 93 91 94 99 96 92 86 86 93 93 95 98 95 96 98 98 98 96 96 97 97 96 96 97 96 95 96 96 98 97 96 98 98 97 97 96 96 97
85 98 98 96 92 100 100 99 99 94 96 99 95 93 100 94 95 97 96 96 96 97 96 96 96 95 96 96 96 96 96 97 98 98 97 98 99 98 96 96 96 94 93 96

GFSNGP_850_rhum_219.txt.gz
RH
17 19 26 25 34 31 40 34 61 66 57 28 44 61 41 45 55 63 67 73 78 82 84 83 80 69 63 62 61 62 61 61 64 66 66 68 68 68 69 70 72 72 72 71
25 26 27 31 26 28 26 24 23 21 22 16 19 32 42 48 57 64 78 85 85 86 82 78 70 69 66 64 64 66 67 67 68 68 68 68 68 69 70 72 75 76 78 80
46 37 36 32 26 26 25 24 23 25 19 20 30 37 46 53 61 76 86 88 86 80 75 65 56 50 42 38 31 27 25 23 22 21 20 19 19 20 21 24 27 34 41 49
35 38 42 20 31 26 24 23 21 22 25 29 32 48 58 71 78 81 81 79 73 67 62 57 40 25 25 16 15 14 12 12 11 10 10 10 10 10 9 9 9 9 9 9
46 43 24 25 30 35 32 26 22 25 24 44 77 81 84 78 70 68 71 66 62 57 42 32 17 15 15 16 15 17 13 13 12 12 11 11 11 11 12 12 12 11 13 12
39 49 40 28 37 35 35 36 37 31 37 70 74 62 61 76 72 71 65 60 53 24 22 22 18 17 16 19 17 22 15 14 14 13 13 13 13 13 13 14 14 16 16 18
48 52 34 36 40 39 41 32 48 46 52 70 64 66 78 75 67 61 47 28 25 24 26 24 21 19 18 18 20 16 14 13 12 12 15 21 24 23 25 31 36 38 39 36
55 54 59 45 49 44 51 60 60 61 65 68 80 82 73 66 59 55 49 35 33 32 28 24 22 18 16 15 23 39 40 42 40 42 45 44 46 42 38 43 43 42 42 41
45 45 70 67 67 68 69 69 71 75 78 82 80 74 67 59 55 57 57 50 43 39 30 40 48 44 37 35 47 48 44 43 43 45 45 45 51 51 51 50 49 48 47 47
51 77 96 99 100 98 99 98 100 100 99 91 80 62 55 55 62 65 59 47 36 32 45 39 46 51 52 54 49 51 52 54 56 59 59 59 61 62 61 60 58 57 57 58
94 99 99 99 99 100 99 99 96 82 72 68 66 61 61 64 61 55 47 34 30 30 34 35 40 41 54 63 69 72 72 70 67 66 67 69 70 70 69 68 69 75 79 82
95 97 90 98 98 98 97 94 89 85 77 74 68 65 55 51 42 36 38 45 48 52 60 61 62 66 66 70 73 77 78 76 76 79 78 80 79 77 75 76 76 79 86 97
97 98 97 97 97 97 96 98 88 78 72 54 42 37 37 47 54 55 50 50 63 67 61 56 60 72 76 77 82 85 88 88 89 88 88 87 84 85 87 82 93 94 93 94
97 96 97 97 98 96 86 62 48 43 45 45 45 46 59 59 57 64 66 68 69 70 72 75 77 80 82 84 88 91 92 93 94 92 93 90 86 86 89 91 89 85 85 92
96 96 96 95 87 66 52 53 58 61 57 58 54 55 60 66 71 71 73 77 80 83 83 82 84 88 89 91 94 95 94 89 89 92 90 90 95 90 89 92 90 89 87 90
95 91 79 72 73 68 66 64 66 70 70 67 70 75 77 78 81 81 82 84 87 88 91 93 94 93 96 97 95 93 91 96 95 92 91 90 90 93 90 90 93 94 96 96
87 80 76 78 80 80 80 80 81 82 78 79 81 81 82 84 84 82 85 89 92 95 96 96 96 94 96 94 94 94 91 90 95 92 91 93 100 100 100 99 97 95 95 86
81 86 88 86 86 82 74 76 83 82 83 79 82 80 85 88 89 91 92 94 94 93 92 94 96 96 94 93 94 94 91 89 88 92 94 96 97 98 98 98 99 96 93 93
77 74 67 67 76 80 87 88 88 84 83 92 89 90 94 93 92 92 94 93 91 91 91 96 97 95 94 91 95 92 90 87 94 97 92 91 89 90 92 90 90 91 91 91
66 67 65 69 64 70 69 80 89 85 85 94 97 97 95 94 95 96 96 96 96 97 97 98 97 94 93 93 100 98 93 98 97 91 92 93 95 96 95 98 100 95 93 91
64 62 62 66 68 73 97 98 98 97 92 96 100 98 98 98 99 98 99 98 96 99 100 100 100 94 93 97 95 97 98 93 99 99 98 100 100 100 100 100 97 93 93 96
94 96 95 93 92 91 100 100 100 100 100 100 99 100 100 100 100 98 100 100 98 100 100 96 96 97 94 100 97 96 100 100 100 100 100 99 100 100 99 97 94 96 96 95
98 99 99 100 100 100 100 100 100 100 92 87 93 95 100 100 100 100 100 99 100 100 100 100 100 100 96 96 99 97 98 98 98 98 98 100 100 100 100 98 99 98 98 96
100 100 100 100 100 100 100 100 100 100 100 98 99 100 100 100 100 100 100 100 100 100 100 100 100 100 100 99 98 97 98 98 97 96 95 100 96 97 98 99 98 97 96 96
100 100 100 100 100 100 99 100 98 98 98 100 98 99 99 100 100 98 100 100 100 100 100 94 100 99 98 100 98 97 97 97 98 99 97 95 98 98 98 98 98 98 97 97
100 100 100 100 100 100 100 100 100 100 99 100 100 100 99 97 97 99 97 100 99 97 96 96 96 98 98 97 96 96 95 95 96 96 99 98 98 98 98 98 97 97 96 97
100 100 100 100 100 100 100 99 99 100 100 100 100 95 98 98 96 98 96 96 96 96 96 97 98 98 96 95 95 96 95 95 96 98 98 97 96 96 98 97 98 97 96 96

GFSNGP_850_rhum_222.txt.gz
RH
21 26 30 30 41 43 45 48 52 58 60 46 59 64 47 49 59 67 71 75 79 78 72 68 65 63 62 62 62 63 61 60 61 64 64 65 65 66 67 69 70 72 73 74
28 26 25 34 34 38 35 33 36 35 35 23 34 46 45 54 63 66 74 79 81 79 73 66 64 60 54 48 42 36 31 27 23 20 17 15 14 12 12 12 12 14 15 19
67 40 40 50 42 35 36 31 28 34 27 29 42 51 49 54 60 72 79 83 81 73 66 58 49 44 31 24 18 15 12 11 10 9 9 8 8 8 8 8 8 8 8 8
71 47 61 34 31 31 30 29 28 24 39 37 47 49 49 54 63 78 83 82 75 66 54 41 28 22 18 15 14 13 12 12 12 12 11 10 10 9 9 9 9 9 9 9
67 76 42 29 42 34 34 31 28 28 55 74 72 68 78 73 74 78 77 69 62 55 39 24 17 16 18 20 18 18 14 12 11 10 9 9 8 8 9 10 10 11 12 15
54 64 60 33 41 33 31 43 33 32 72 77 65 83 88 72 68 70 66 59 42 28 27 22 19 18 18 18 17 16 12 11 10 11 12 12 13 14 15 17 18 18 18 18
54 69 47 39 43 36 43 39 44 45 70 75 75 71 73 73 70 64 55 39 26 30 32 25 21 19 17 16 16 16 16 14 14 14 16 18 22 25 28 30 34 36 39 38
61 62 66 44 46 44 58 54 51 64 68 76 79 76 71 66 61 49 38 34 36 38 32 28 24 20 18 17 19 19 19 19 21 26 32 34 36 38 43 50 52 50 52 51
56 60 83 100 96 71 65 65 65 69 79 79 74 68 61 57 56 54 51 45 38 34 30 32 32 26 24 29 35 39 40 40 42 44 41 40 47 49 50 57 62 62 62 61
60 95 100 99 100 96 83 92 87 84 78 72 69 64 64 73 65 61 55 49 38 31 27 26 29 33 38 41 42 45 43 43 46 46 45 49 52 60 62 65 72 70 70 70
100 100 99 100 100 100 100 100 98 97 93 91 90 94 89 78 62 55 44 35 28 28 31 32 38 43 44 47 52 54 55 56 61 63 65 73 72 79 81 80 79 83 86 86
97 99 96 99 100 100 96 99 97 96 98 96 90 72 62 54 46 37 34 38 41 41 46 40 34 35 38 46 57 67 74 78 81 85 84 89 85 81 85 86 90 93 92 94
99 99 98 98 98 97 97 98 97 96 90 58 46 41 40 43 45 48 42 44 46 47 45 46 47 50 53 62 70 76 83 85 86 93 94 91 90 92 84 79 78 76 75 88
98 96 96 96 97 96 95 89 74 55 52 48 46 46 45 43 41 42 42 44 48 46 44 48 55 69 74 76 82 88 87 86 88 86 86 86 87 86 88 88 88 88 80 82
96 95 96 96 96 93 76 61 59 56 54 48 45 46 46 46 45 44 45 51 56 60 63 71 79 77 82 88 92 89 86 88 86 89 91 91 91 89 92 95 96 92 84 79
96 96 95 95 91 77 63 59 60 63 60 59 65 65 60 57 57 60 71 80 79 76 79 84 84 86 91 93 92 90 87 86 94 94 94 94 90 91 89 86 81 84 87 84
93 94 86 82 80 76 74 72 72 74 71 75 73 69 69 73 81 83 79 78 80 81 80 84 84 92 96 93 94 90 89 92 94 93 83 88 94 97 96 96 98 97 97 92
88 88 82 82 81 77 76 81 81 78 77 81 85 83 82 80 76 77 82 81 77 76 71 80 95 97 96 91 90 94 95 87 86 90 92 98 95 95 96 90 93 95 93 93
79 78 74 76 76 79 81 79 85 83 85 86 79 73 70 73 86 88 88 83 82 80 72 91 95 94 90 89 97 95 91 86 93 99 99 90 87 92 96 94 95 94 94 92
72 73 74 75 71 74 73 84 82 71 66 70 71 73 78 78 84 85 87 87 84 88 98 96 95 93 90 90 95 97 89 98 99 91 86 99 98 98 98 99 99 96 96 96
83 85 82 77 74 75 76 78 85 80 80 87 92 90 87 84 88 87 92 94 80 90 99 98 96 94 93 90 94 95 99 88 93 100 100 100 100 100 98 99 98 98 97 97
92 96 94 94 94 91 92 89 90 93 95 94 88 84 84 82 84 83 90 95 94 100 99 96 96 94 94 96 98 98 90 100 100 100 99 100 99 96 97 98 98 97 98 96
98 97 95 94 94 91 88 97 100 96 96 92 91 91 94 96 98 98 98 90 98 97 99 97 98 97 94 96 94 93 98 98 96 96 100 98 97 98 97 98 97 98 96 95
97 95 97 97 100 98 97 94 94 93 95 98 96 94 98 98 93 90 96 100 100 99 98 99 100 98 96 96 97 99 96 94 94 93 95 100 97 97 98 98 98 97 96 95
100 100 98 98 96 96 95 96 94 92 95 94 94 94 96 98 99 93 99 99 98 100 98 97 100 100 97 97 96 94 93 95 94 98 98 97 99 98 96 97 99 98 96 96
100 99 98 99 98 99 98 96 98 98 99 98 93 95 94 96 99 98 95 95 95 96 96 96 97 99 97 96 95 95 96 95 95 97 96 98 98 98 97 96 96 96 96 96
100 100 99 94 97 98 99 100 100 94 95 100 99 93 98 100 97 97 96 96 96 96 97 97 97 96 96 96 96 96 96 97 99 96 95 96 99 96 98 96 96 96 96 96

GFSNGP_850_rhum_225.txt.gz
RH
29 32 36 37 40 50 52 45 55 54 65 52 59 65 60 62 67 72 76 75 73 73 73 70 66 64 62 60 60 59 55 52 48 44 38 32 27 23 20 16 16 14 13 14
30 30 37 31 38 46 42 39 45 42 50 38 42 47 59 68 72 75 78 77 77 75 73 69 63 58 52 44 35 26 20 16 12 10 9 9 9 9 9 9 9 8 8 8
55 40 40 46 42 47 44 40 32 37 27 31 60 54 60 71 68 74 73 76 77 73 67 62 53 42 31 22 16 13 11 10 10 10 10 9 9 9 8 8 7 7 7 8
76 46 57 32 34 31 35 33 32 31 35 38 60 59 59 62 66 71 73 78 76 69 59 47 37 24 18 16 14 12 12 11 10 9 10 10 10 10 11 11 12 13 14 15
69 73 47 33 34 37 36 33 32 37 74 79 71 61 78 65 60 65 75 77 71 59 44 26 20 18 17 15 16 16 12 11 10 11 13 13 13 13 14 15 16 18 20 22
64 58 59 34 38 33 27 35 46 40 75 75 60 76 91 79 74 79 76 71 61 48 27 19 18 18 18 17 15 15 14 14 14 15 15 15 16 16 18 20 23 23 23 23
59 68 55 36 41 32 36 35 46 50 66 68 64 59 70 79 77 72 68 61 41 30 27 21 19 19 18 17 18 18 18 17 17 18 18 19 21 23 26 26 28 29 31 33
62 64 64 82 45 39 50 58 64 67 68 68 69 72 71 70 67 63 54 34 34 34 29 26 25 24 22 23 24 23 23 23 22 22 22 25 30 33 39 45 50 54 59 60
59 58 97 100 98 88 66 69 76 71 70 65 72 71 70 66 58 42 39 43 46 39 36 39 37 30 28 30 31 28 25 24 26 30 36 41 47 52 63 67 65 68 76 77
72 98 98 99 100 98 78 79 79 75 73 70 67 64 58 55 57 61 58 59 48 37 35 35 31 30 31 30 32 35 40 44 48 54 56 60 62 71 77 81 82 83 89 92
100 100 99 100 100 100 99 88 78 73 68 64 61 65 70 78 83 88 73 46 36 32 33 36 39 38 36 39 43 44 49 57 59 58 61 64 69 81 81 84 93 95 93 91
96 99 98 100 100 100 99 100 95 82 84 89 91 96 96 96 87 59 41 41 42 40 42 41 38 38 39 44 48 52 59 60 64 71 75 82 82 78 81 81 81 83 87 94
98 98 97 98 98 98 96 97 97 96 97 96 97 93 76 56 51 54 44 43 43 45 44 43 44 43 46 52 60 68 74 78 80 81 80 81 81 83 84 79 75 73 74 74
97 96 95 93 98 97 96 96 96 96 93 82 64 51 47 45 44 42 43 45 46 45 46 48 47 49 56 63 70 76 80 82 78 79 82 84 85 85 86 86 86 80 71 74
96 96 97 96 95 96 96 95 92 82 68 59 56 54 52 48 46 47 50 51 49 50 53 56 58 60 67 74 82 85 82 81 78 82 90 93 90 84 85 88 92 94 93 87
96 96 95 94 96 95 94 90 82 78 72 70 66 59 54 51 51 51 54 60 62 60 62 66 69 71 78 83 84 86 83 80 85 92 89 87 85 91 95 92 92 91 89 89
94 94 94 94 91 85 83 81 77 74 72 68 65 62 58 57 59 62 65 69 73 73 74 76 72 87 93 88 84 82 84 86 91 89 85 92 92 98 96 92 93 95 90 88
95 93 88 85 84 82 80 77 75 74 74 78 75 71 69 73 78 83 85 84 83 76 73 76 83 91 90 84 82 85 88 87 85 92 98 98 98 98 98 97 95 94 92 88
77 75 77 78 79 79 77 81 82 79 77 76 74 71 74 81 85 85 83 79 82 78 72 86 91 93 87 85 86 90 89 90 99 96 99 94 92 96 94 94 94 94 94 95
88 88 83 80 76 76 74 77 78 79 79 78 77 74 73 76 79 79 79 75 80 83 84 92 96 92 88 84 86 92 92 100 100 91 92 100 95 91 94 94 96 95 93 92
94 95 92 89 87 83 82 84 82 78 81 84 84 81 80 79 80 79 78 74 77 87 100 96 93 91 88 85 93 98 99 96 90 98 99 94 88 90 93 94 92 93 95 98
95 93 89 89 89 86 86 91 93 92 92 90 89 88 89 87 86 83 87 89 87 94 96 95 95 92 92 96 98 100 92 93 100 100 100 100 96 96 95 96 96 95 96 96
92 91 91 93 95 95 96 96 96 98 95 96 96 96 97 97 94 93 87 84 94 95 96 96 97 97 93 96 98 92 94 95 94 94 98 98 98 98 98 98 97 98 98 95
96 93 96 96 96 95 94 92 92 90 94 94 92 94 97 97 88 89 90 94 95 95 98 98 99 97 95 94 95 95 94 93 93 94 100 99 98 96 92 94 96 97 96 96
97 99 96 96 97 100 96 91 90 92 92 87 87 88 92 95 99 91 95 98 97 97 95 97 98 98 96 96 95 95 96 96 94 95 98 97 96 94 96 99 98 97 97 97
96 100 100 99 99 98 96 94 98 98 95 91 85 89 91 92 92 94 94 96 96 96 96 96 96 95 95 95 95 95 96 97 98 96 96 98 96 96 98 97 95 96 96 97
93 100 100 90 93 96 96 100 100 92 92 95 91 91 95 94 95 96 96 96 96 96 96 96 96 95 94 95 96 96 98 98 98 94 97 95 99 98 96 94 95 97 97 94

GFSNGP_850_rhum_228.txt.gz
RH
38 36 39 42 45 53 54 40 58 50 61 44 62 71 68 75 77 78 80 78 72 69 68 66 65 63 62 60 61 60 57 56 53 47 36 26 17 12 10 8 8 8 8 8
34 31 44 37 40 48 46 39 50 45 58 44 46 58 72 77 81 83 81 76 73 71 70 69 66 65 62 56 47 36 28 20 13 10 9 9 9 9 9 9 8 8 8 7
55 37 40 44 37 48 49 47 38 47 30 41 62 57 68 80 78 78 77 74 75 73 71 68 62 54 42 29 20 15 12 11 10 10 9 10 11 11 10 10 10 9 9 10
65 46 62 28 32 28 34 36 38 30 28 38 51 50 60 66 74 78 73 76 77 74 70 61 47 32 23 17 13 12 12 10 10 10 11 12 12 12 11 11 11 12 13 16
66 70 45 34 39 41 40 35 34 29 61 78 72 62 80 71 66 61 66 71 71 69 61 49 33 23 19 16 15 14 12 12 11 12 13 14 14 14 15 15 16 18 21 22
71 65 65 31 30 31 27 39 33 31 71 77 62 72 83 75 67 66 68 69 71 63 48 34 25 22 18 18 18 16 15 16 15 15 16 17 17 17 19 21 24 26 27 29
46 60 54 38 39 30 37 32 45 39 64 66 58 55 60 78 73 68 72 74 65 48 27 23 24 24 22 19 19 19 19 19 20 21 20 20 20 24 26 27 30 31 32 34
62 64 64 93 45 38 54 67 62 54 64 70 63 72 78 80 79 79 73 62 51 32 27 27 26 24 24 24 25 26 26 25 24 23 24 27 30 29 31 36 41 44 46 48
55 57 96 99 96 95 76 73 76 69 69 58 70 79 82 79 73 65 59 44 41 37 39 39 38 34 28 29 29 29 27 27 27 28 30 33 37 42 45 49 54 58 66 79
86 98 98 99 100 89 76 75 74 71 68 62 70 72 70 65 59 49 48 53 51 46 48 53 48 30 31 32 31 30 30 30 33 38 41 44 48 54 63 66 69 79 92 90
100 100 99 100 100 86 78 75 72 70 68 68 69 68 63 57 58 60 62 65 68 66 54 37 36 37 36 35 33 33 33 34 38 47 57 60 66 71 74 75 83 97 90 93
96 98 98 100 100 99 88 93 80 70 75 78 70 77 72 75 81 86 87 83 74 63 46 42 42 37 35 34 36 39 49 57 66 73 72 70 73 72 72 73 72 72 73 95
97 97 97 98 97 99 98 99 100 99 93 90 91 89 89 93 94 94 94 81 53 48 47 44 41 42 44 48 55 62 63 67 72 71 66 64 73 79 81 71 68 71 76 79
96 96 94 96 97 96 96 97 95 96 97 95 96 96 95 94 86 64 56 52 50 48 49 49 49 52 55 58 60 63 69 74 72 70 70 80 84 85 82 84 91 73 70 76
96 96 96 97 96 96 96 96 94 96 95 94 92 85 64 54 53 52 53 52 53 56 60 60 58 59 61 60 62 66 72 73 74 76 88 90 87 82 84 87 89 83 80 77
96 95 95 94 95 96 95 95 92 91 85 80 74 70 65 60 60 62 63 63 62 60 61 62 61 60 58 64 71 72 72 74 81 92 89 84 88 86 84 88 91 90 92 88
92 93 94 94 95 95 95 93 85 80 77 73 72 70 66 64 64 63 63 65 65 65 64 62 60 62 68 76 77 73 75 79 86 95 89 86 85 88 92 97 93 93 89 88
96 96 95 92 87 79 78 79 77 75 72 72 68 64 62 59 60 65 66 68 67 62 66 64 66 76 81 83 78 81 85 88 90 91 86 87 88 98 95 93 90 89 86 84
95 92 88 82 78 77 78 78 79 79 75 70 66 65 68 71 73 72 69 68 69 65 68 74 80 85 87 87 86 86 91 95 93 91 89 88 90 89 89 90 89 89 90 90
94 92 90 86 84 82 82 82 82 78 77 76 76 75 73 74 76 77 74 72 75 76 77 90 94 94 88 86 84 94 99 95 95 90 92 100 91 88 90 92 92 92 90 90
95 89 88 87 88 87 88 88 90 91 90 88 86 84 84 82 84 83 78 74 79 83 92 99 94 92 87 85 91 100 98 98 95 96 99 90 85 91 91 93 92 94 92 92
94 92 93 95 92 90 94 96 94 92 92 89 92 94 91 87 86 85 87 86 84 89 92 94 93 91 91 95 98 96 96 94 95 99 97 95 95 94 93 92 92 94 96 95
93 93 94 92 93 95 92 90 89 90 88 90 90 88 87 87 88 88 81 83 88 92 95 96 94 96 93 97 99 94 93 96 93 90 93 100 100 95 92 94 95 95 96 95
94 96 96 94 91 91 86 86 88 89 90 89 87 89 90 89 84 90 93 92 95 95 98 96 98 96 96 94 94 95 96 95 94 94 99 98 96 95 95 94 93 97 96 96
97 98 96 93 92 95 94 93 91 89 88 86 86 88 91 96 98 89 91 91 95 97 95 95 98 99 97 96 96 96 94 93 95 94 96 94 90 93 94 94 95 94 98 98
94 100 99 97 98 96 95 96 98 96 94 90 87 90 90 90 91 92 91 91 94 95 95 96 96 97 96 96 95 95 94 95 95 97 92 90 97 98 93 93 94 96 97 95
90 100 100 89 92 95 95 100 100 92 94 97 89 92 93 94 94 97 96 95 95 96 96 96 97 97 96 95 94 93 93 94 95 93 94 95 97 96 94 95 96 93 89 90